Kuiper-00250

operational
NORAD ID: 67155 Int'l Des: 2025-301 Owner: KUIP Country: US Constellation: kuiper
LEOCIRCULAR

Über Kuiper-00250

Beschreibung wird geladen...

Live-Position

3D-Globus wird geladen...

Nächste Überflüge

Höhenverlauf

Altitude vs Time

uPlot chart will show altitude changes over time

Zweizeiliger Elementsatz

1 67155U 25301Y 26034.27336038 .00036546 00000-0 98612-3 0 9995
2 67155 51.8714 231.5790 0008479 265.0240 94.9779 15.37401212 8476
Epoch: 3. Feb. 2026 • Age: 12 hours

Aktueller Status

Höhe 456.7 km
Geschwindigkeit 7.64 km/s
Subsatellitenpunkt -21.97°S, 17.86°E
Startdatum 16. Dez. 2025
Alter 0.1 years
Typ internet

Technische Details

Klassifizierung Payload
Masse 490.00 kg
Trockenmasse 490.00 kg
Gesamtmasse 490.00 kg
Länge 1.80 m
Durchmesser 0.70 m
Spannweite 5.00 m
Form Box + 2 pan
Hersteller KUIP
Bus-Typ Kuiper
Phasenstatus In Orbit
Besitzer/Staat KUIP/US

Große Konstellationen

Loading constellations...